This demonstration page uses our WeatherBlox Daily Observations layout. Learn more.

Left ArrowRight Arrow

Hourly Observations for May 10, 2021

Temp ( °F °C ) Dew Point ( °F °C ) Humidity (%) Winds ( mph kmh ) Pressure ( in mb ) Visibility ( mi km ) Precip ( " mm )
12:53 am 00:53 Clear 69 20.6 49 9.4 49 49 ESE 14 22 29.75 1008 10 16 0.00 0.00
1:53 am 01:53 Clear 67 19.4 50 10 55 55 E 10 17 29.77 1008 10 16 0.00 0.00
2:53 am 02:53 Clear 66 18.9 51 10.6 59 59 E 17 28 29.75 1008 10 16 0.00 0.00
3:53 am 03:53 Clear 64 17.8 52 11.1 65 65 E 13 20 29.77 1008 10 16 0.00 0.00
4:53 am 04:53 Clear 62 16.7 52 11.1 70 70 E 12 19 29.78 1009 10 16 0.00 0.00
5:53 am 05:53 Clear 60 15.6 52 11.1 75 75 NE 8 13 29.81 1009 10 16 0.00 0.00
6:53 am 06:53 Clear 59 15 52 11.1 78 78 NE 8 13 29.82 1010 10 16 0.00 0.00
7:43 am 07:43 Mostly Cloudy 60 15.6 52 11.1 75 75 NE 8 13 29.89 1012 10 16 0.00 0.00
7:53 am 07:53 Cloudy 61 16.1 52 11.1 72 72 ENE 8 13 29.83 1010 10 16 0.00 0.00
8:53 am 08:53 Mostly Cloudy 65 18.3 53 11.7 66 66 ENE 13 20 29.86 1011 10 16 0.00 0.00
9:53 am 09:53 Cloudy 65 18.3 53 11.7 66 66 ENE 14 22 29.87 1012 10 16 0.00 0.00
10:53 am 10:53 Cloudy 67 19.4 53 11.7 61 61 ENE 14 22 29.88 1012 10 16 0.00 0.00
11:27 am 11:27 Mostly Sunny 70 21.1 54 12.2 57 57 NE 12 19 29.88 1012 10 16 0.00 0.00
11:53 am 11:53 Sunny 72 22.2 54 12.2 53 53 NE 13 20 29.88 1012 10 16 0.00 0.00
12:53 pm 12:53 Sunny 74 23.3 53 11.7 48 48 ENE 12 19 29.87 1012 10 16 0.00 0.00
1:53 pm 13:53 Sunny 76 24.4 52 11.1 43 43 ENE 13 20 29.85 1011 10 16 0.00 0.00
2:53 pm 14:53 Sunny 78 25.6 50 10 37 37 ENE 16 26 29.83 1010 10 16 0.00 0.00
3:53 pm 15:53 Sunny 80 26.7 48 8.9 33 33 ENE 14 22 29.80 1009 10 16 0.00 0.00
4:53 pm 16:53 Sunny 79 26.1 47 8.3 32 32 ENE 16 26 29.78 1008 10 16 0.00 0.00
5:53 pm 17:53 Sunny 81 27.2 45 7.2 28 28 ENE 16 26 29.75 1007 10 16 0.00 0.00
6:53 pm 18:53 Sunny 80 26.7 45 7.2 29 29 E 16 26 29.75 1007 10 16 0.00 0.00
7:53 pm 19:53 Sunny 75 23.9 47 8.3 37 37 ESE 21 33 29.75 1008 10 16 0.00 0.00
8:53 pm 20:53 Clear 70 21.1 49 9.4 47 47 E 20 31 29.77 1008 10 16 0.00 0.00
9:53 pm 21:53 Clear 67 19.4 52 11.1 59 59 E 10 17 29.81 1010 10 16 0.00 0.00
10:53 pm 22:53 Clear 65 18.3 52 11.1 63 63 E 14 22 29.84 1010 10 16 0.00 0.00
11:53 pm 23:53 Clear 62 16.7 52 11.1 70 70 E 15 24 29.86 1011 10 16 0.00 0.00

Powered by AerisWeather